Simultaneous Nadir Overpasses (SNOs) Predictions

Prediction of SNOs between GOES-16 and NPP Satellite Orbit:

Table of predicted SNOs for the next 14.0 days since TLE Epoch: 7/10/2020
Index Date Time (GOES-16) GOES-16 Lat,Lon NPP Lat,Lon Distance(km) Time Diff (sec)
1 07/11/2020 18:38:49 -0.01, -75.21 -0.80, -78.67 395.18 80
2 07/12/2020 18:22:46 -0.01, -75.22 0.25, -74.15 121.96 80
3 07/14/2020 06:44:34 0.01, -75.23 0.95, -79.42 478.02 80
4 07/15/2020 06:23:10 0.00, -75.24 -0.10, -74.90 39.09 80
5 07/17/2020 18:26:23 0.02, -75.26 -0.10, -75.67 46.78 80
6 07/18/2020 18:10:20 0.01, -75.28 0.95, -71.15 470.75 80
7 07/20/2020 06:32:08 -0.01, -75.29 0.25, -76.42 128.47 80
8 07/21/2020 06:10:45 -0.01, -75.30 -0.80, -71.89 389.09 80
9 07/22/2020 18:32:41 0.01, -75.33 -0.44, -77.19 213.00 80
10 07/23/2020 18:16:37 0.00, -75.34 0.61, -72.67 305.16 80
